This is the latest recevied weather packets stored in our database for station/object SP7QPD-1. If no packets are shown the sender has not sent any weather packets the latest 10 day(s).
| Time | Temp. | Humidity | Pressure | Rain* | Wind** | Luminosity | Snow |
|---|---|---|---|---|---|---|---|
| 1778059407 | 21.67° C | 54% | 1003 hPa | 0 mm | - | - | - |
| 1778058807 | 22.22° C | 53% | 1003.1 hPa | 0 mm | - | - | - |
| 1778058207 | 21.67° C | 54% | 1002.9 hPa | 0 mm | - | - | - |
| 1778057607 | 21.67° C | 54% | 1002.8 hPa | 0 mm | - | - | - |
| 1778057007 | 21.11° C | 55% | 1002.9 hPa | 0 mm | - | - | - |
| 1778056407 | 20.56° C | 56% | 1002.8 hPa | 0 mm | - | - | - |
| 1778055807 | 21.11° C | 56% | 1002.8 hPa | 0 mm | - | - | - |
| 1778055207 | 20.56° C | 57% | 1002.7 hPa | 0 mm | - | - | - |
| 1778054607 | 20° C | 58% | 1002.8 hPa | 0 mm | - | - | - |
| 1778054007 | 20° C | 58% | 1002.8 hPa | 0 mm | - | - | - |
| 1778053406 | 18.89° C | 60% | 1002.7 hPa | 0 mm | - | - | - |
| 1778052806 | 18.33° C | 61% | 1002.7 hPa | 0 mm | - | - | - |
| 1778052206 | 17.78° C | 64% | 1002.5 hPa | 0 mm | - | - | - |
| 1778051606 | 17.22° C | 63% | 1002.5 hPa | 0 mm | - | - | - |
| 1778051006 | 17.22° C | 64% | 1002.5 hPa | 0 mm | - | - | - |
| 1778050406 | 16.67° C | 64% | 1002.5 hPa | 0 mm | - | - | - |
| 1778049806 | 16.67° C | 65% | 1002.5 hPa | 0 mm | - | - | - |
| 1778049206 | 16.11° C | 66% | 1002.5 hPa | 0 mm | - | - | - |
| 1778048606 | 15.56° C | 67% | 1002.6 hPa | 0 mm | - | - | - |
| 1778048006 | 15° C | 68% | 1002.5 hPa | 0 mm | - | - | - |
| 1778047406 | 14.44° C | 69% | 1002.4 hPa | 0 mm | - | - | - |
| 1778046805 | 13.89° C | 69% | 1002.5 hPa | 0 mm | - | - | - |
| 1778046205 | 13.89° C | 70% | 1002.5 hPa | 0 mm | - | - | - |
| 1778045605 | 12.78° C | 72% | 1002.5 hPa | 0 mm | - | - | - |
| 1778045005 | 11.67° C | 72% | 1002.7 hPa | 0 mm | - | - | - |
* Rain latest hour (hover to see other rain measurements)
** Current wind speed in m/s (hover to see current wind gust speed)